sat.trackr.live / text

‹ back to catalog

STARLINK-31054

NORAD 58619 · 2023-203B

PAYLOAD ACTIVE UNKNOWN

§ Identity

Operator
Country
US
Launch date
2023-12-23
Launch site
AFETR
Launch vehicle
Mass (kg)
RCS (m²)

Purposes: comms

External: N2YO · Heavens-Above · Gunter

§ Orbital elements

Epoch: 2026-05-24T22:56:34.399680Z

Period
94.27 min
Inclination
43.0030°
Eccentricity
0.0001011
Mean motion
15.27580288 rev/d
Perigee alt
482.4 km
Apogee alt
483.7 km
Semi-major
6,861.2 km
B*
-1.1876e-5
RAAN
356.5275°
Arg perigee
236.0094°
Mean anomaly
124.0662°
Rev number
13,522

§ Raw data

STARLINK-310541 58619U 23203B   26144.95595370 -.00000589  00000+0 -11876-4 0  99992 58619  43.0030 356.5275 0001011 236.0094 124.0662 15.27580288135221

JSON: /api/v1/satellites/58619 · /tle

For live sub-satellite position, see the globe view (requires WebGL).

§ Visibility from observer

Set your observer location to see the next 7 days of passes ≥ 10°. The values pass through the URL so the page stays shareable.

No JS? Fill the form by hand. The geolocation button needs JavaScript.